Volver al catálogo

THOR BURNER 2 R/B

ActivoSSO
NORAD 4954·ROCKET BODY·🇺🇸 United States

Lanzado Feb 17, 1971 desde Vandenberg Space Force Base

Loading…

Próximos Pases (próximas 24 horas)

TLE

ActualizadoSource: Space-Track

Época: Sep 14, 2026, 20:25 UTC

1 04954U 71012B   26257.85117117  .00000112  00000-0  49039-4 0  9999
2 04954  98.3160 109.1842 0035752 324.1234  35.7554 14.39799523908779

Sigue THOR BURNER 2 R/B en tiempo real con AllMySat

Download on the App Store